Regional Weather Roundup
Issued by NWS

Home | Current Version | Previous Version | Text Only | Print | Product List | Glossary Off
Versions: 1 2 3 4 5 6 7 8 9 10 11 12 13 14 15 16 17 18 19 20 21 22 23 24 25 26 27 28 29 30 31 32 33 34 35 36 37 38 39 40 41 42 43 44 45 46 47

000
ASUS45 KCYS 040610
RWRWY

WYOMING REGIONAL WEATHER ROUNDUP
NATIONAL WEATHER SERVICE CHEYENNE WY
1200 AM MDT FRI SEP 04 2015

NOTE:  "FAIR" INDICATES FEW OR NO CLOUDS BELOW 12,000 FEET
WITH NO SIGNIFICANT WEATHER AND/OR OBSTRUCTIONS TO VISIBILITY.

WYZ001-040700-
YELLOWSTONE NATIONAL PARK

CITY           SKY/WX    TMP DP  RH WIND       PRES   REMARKS
LK YELLOWSTONE   N/A     47  45  93 CALM      30.11F
6HR MIN TEMP:  47; 6HR MAX TEMP:  67; 6HR PCP:  0.03;

W YELLOWSTONE  NOT AVBL

$$
WYZ002>013-054>058-071-098>099-040700-
NORTHERN WYOMING

CITY           SKY/WX    TMP DP  RH WIND       PRES   REMARKS
JACKSON        MOCLDY    55  46  71 NE5       29.99S
CODY           MOCLDY    66  41  39 W9G25     29.85F
GREYBULL       FAIR      67  44  43 NW9       29.78R
6HR MIN TEMP:  67; 6HR MAX TEMP:  80;

WORLAND        FAIR      64  40  41 S10       29.81R
6HR MIN TEMP:  60; 6HR MAX TEMP:  87;

SHERIDAN       FAIR      63  39  41 W7        29.84S
6HR MIN TEMP:  63; 6HR MAX TEMP:  84;

BUFFALO        FAIR      67  39  35 NW9       29.90S
6HR MIN TEMP:  65; 6HR MAX TEMP:  87;

GILLETTE       FAIR      72  44  36 W10       29.82R
6HR MIN TEMP:  72; 6HR MAX TEMP:  88;

HULETT         FAIR      66  50  55 S8        29.83R
NEWCASTLE      FAIR      73  43  33 MISG      29.82F

$$
WYZ014>020-022>026-101>103-040700-
CENTRAL WYOMING

CITY           SKY/WX    TMP DP  RH WIND       PRES   REMARKS
BIG PINEY      FAIR      56  35  45 NE10      30.02R
6HR MIN TEMP:  55; 6HR MAX TEMP:  72; 6HR PCP: TRACE;

PINEDALE       FAIR      55  36  47 CALM      30.03S
DUBOIS         MOCLDY    55  34  44 MISG      30.02S
LANDER         FAIR      71  33  24 SW14      29.87R
6HR MIN TEMP:  69; 6HR MAX TEMP:  84;

RIVERTON       FAIR      69  42  37 S14       29.88S
6HR MIN TEMP:  69; 6HR MAX TEMP:  83;

CASPER         FAIR      68  40  35 S17G26    29.91F
6HR MIN TEMP:  64; 6HR MAX TEMP:  83;

DOUGLAS        FAIR      61  52  72 E7        29.91F
6HR MIN TEMP:  61; 6HR MAX TEMP:  77; 6HR PCP:  0.08;


$$
WYZ021-027>030-104>119-040700-
SOUTHERN WYOMING

CITY           SKY/WX    TMP DP  RH WIND       PRES   REMARKS
EVANSTON       FAIR      59  29  31 S8        30.00S
6HR MIN TEMP:  58; 6HR MAX TEMP:  77;

KEMMERER       FAIR      57  27  30 S3        30.02S
FORT BRIDGER   CLEAR     59  28  31 S10       30.03S
ROCK SPRINGS   FAIR      61  43  51 S12       30.00S
6HR MIN TEMP:  61; 6HR MAX TEMP:  77;

DIXON          FAIR      59  44  58 NE9       30.07F
RAWLINS        FAIR      53  43  68 E9        30.06S
6HR MIN TEMP:  53; 6HR MAX TEMP:  71;

SARATOGA       FAIR      55  45  67 SE16      30.09S
LARAMIE        FAIR      47  50 100 S6        30.11F
6HR MIN TEMP:  46; 6HR MAX TEMP:  55; 6HR PCP:  0.04;

CHEYENNE       FAIR      56  46  69 W14       30.02S
6HR MIN TEMP:  54; 6HR MAX TEMP:  71; 6HR PCP: TRACE;

TORRINGTON     FAIR      65  52  62 SE6       29.86F
6HR MIN TEMP:  65; 6HR MAX TEMP:  81; 6HR PCP: TRACE;

PINE BLUFFS    FAIR      54  46  76 SW5       29.97S

$$


USA.gov is the U.S. government's official web portal to all federal, state and local government web resources and services.